Lid_Strength_Index
-1 1 3 3 9 9 11 10 8 8 8 7 6 7 8 7 8 11 4 3 2 2 1 3 2 1 1 1 0 -0 -0 -1 -1 -0 -1 -1 -1 -1 -1 -1 -1 -1 -1 -1 -1 -1 -1 -1 -1
1 2 3 5 11 12 11 9 9 8 6 6 6 7 7 8 4 5 5 3 2 3 2 3 2 2 1 1 0 -0 -0 -1 -1 -1 -1 -2 -1 -1 -1 -1 -1 -1 -1 -1 -2 -1 -1 -1 -1
1 2 5 8 10 12 11 8 8 6 6 6 7 6 7 7 5 4 4 3 3 4 3 3 2 1 1 1 1 1 1 0 -0 -1 -1 -1 -2 -1 -1 -1 -1 -1 -1 -2 -2 -1 -1 -1 -1
3 5 6 11 12 9 10 8 7 7 6 6 6 8 5 4 5 4 3 3 4 4 3 2 2 2 2 2 2 2 2 1 1 0 0 -0 -1 -1 -1 -1 -1 -1 -1 -1 -2 -1 -1 -1 -1
3 5 10 11 10 9 9 8 8 8 7 7 6 8 7 5 4 4 4 4 4 5 4 4 3 4 4 4 3 3 2 2 2 1 1 0 0 -0 -1 -1 -2 -1 -1 -1 -1 -2 -1 -1 -1
7 7 11 12 10 9 8 8 8 8 7 7 8 8 8 5 5 5 4 5 5 5 5 4 4 4 5 4 4 3 3 3 2 2 1 1 1 1 0 -0 -1 -2 -1 -1 -1 -1 -1 -1 -2
7 9 11 11 10 9 8 7 9 8 8 8 7 10 8 6 5 5 5 5 5 5 5 6 5 4 4 3 4 4 4 3 3 2 2 2 2 1 1 1 -0 -1 -2 -1 -1 -1 -1 -1 -2
7 8 10 11 11 10 9 8 8 8 9 7 7 10 9 7 5 5 6 6 6 6 6 7 7 6 6 6 3 2 4 3 3 2 2 2 2 2 2 1 0 -0 -1 -2 -1 -1 -1 -2 -1
5 11 12 10 10 10 9 10 8 8 9 9 8 9 8 6 6 7 7 7 7 6 7 7 7 6 6 6 6 4 2 2 2 2 2 2 4 3 2 1 0 -0 -0 -1 -1 -1 -1 -1 -0
9 11 10 10 10 10 9 10 9 10 10 10 9 7 7 7 7 7 8 8 7 7 7 7 7 7 7 6 6 6 5 5 5 4 4 3 3 2 2 2 1 1 0 0 -1 -0 -1 1 -0
9 11 9 9 9 9 10 10 9 11 11 10 10 8 8 8 8 8 7 7 7 7 7 7 7 7 8 7 6 6 6 6 5 5 4 3 2 2 2 2 2 2 2 2 2 -0 0 -0 0
11 9 9 9 8 9 10 9 10 10 10 8 9 8 8 8 8 8 8 7 8 8 8 7 7 8 8 7 7 7 6 6 6 4 3 3 3 3 3 2 2 2 2 0 0 -0 0 1 1
10 10 9 9 9 9 9 10 10 10 9 8 8 8 9 8 8 7 7 7 7 8 8 7 8 8 7 7 7 6 6 6 5 4 3 2 2 3 2 2 2 2 1 1 0 0 1 2 2
9 9 9 9 9 9 10 10 10 10 10 10 8 9 9 9 8 8 8 8 8 7 8 8 8 8 7 7 6 6 6 5 4 4 3 2 1 2 2 2 2 2 1 0 0 0 1 2 1
8 11 10 9 9 10 10 11 12 9 9 9 10 10 9 9 8 8 8 7 8 7 8 9 9 8 8 7 6 6 5 4 4 3 3 2 1 2 2 2 2 3 2 0 0 1 1 2 1
11 11 13 11 10 10 11 13 9 9 10 10 10 10 10 9 8 8 7 8 8 8 9 9 8 8 7 6 6 6 5 4 4 3 3 2 1 1 2 3 3 2 1 1 0 1 2 3 3
11 14 12 11 9 10 12 12 9 9 10 11 10 10 10 9 9 8 8 8 8 9 9 9 8 8 7 6 6 5 4 4 4 3 3 2 2 2 2 3 3 2 1 2 1 1 2 3 2
15 14 11 12 11 11 12 12 10 9 9 9 11 10 10 10 9 8 8 8 9 10 10 9 7 7 7 6 7 6 6 5 4 3 3 3 3 3 3 3 3 1 2 2 1 2 2 3 3
11 12 13 11 11 13 13 12 10 9 9 10 10 10 9 10 9 8 8 9 10 10 10 9 8 7 7 7 8 8 7 6 4 3 3 3 3 3 3 2 2 3 2 3 1 2 3 3 5
11 14 14 11 11 13 13 13 11 10 10 12 12 11 10 9 9 9 9 10 10 11 10 8 7 7 7 7 7 7 6 6 4 3 3 4 4 3 3 3 3 3 3 2 2 2 4 5 5
13 14 15 13 12 12 13 14 12 11 12 11 11 11 11 10 10 10 10 11 11 11 9 8 8 7 8 7 7 6 6 4 4 3 4 5 4 3 3 3 4 2 1 2 3 3 4 5 5
14 12 12 13 15 18 14 19 15 12 11 12 11 12 12 11 9 10 10 11 11 11 9 8 8 8 8 7 7 7 7 6 5 3 3 4 3 3 3 3 3 2 2 2 3 3 4 4 6
13 12 13 14 16 16 17 19 15 11 13 13 13 11 11 11 10 11 11 11 11 10 9 9 8 8 8 8 7 7 6 5 4 4 3 4 4 3 3 3 2 1 1 2 2 3 3 3 5
11 13 13 15 16 21 17 17 17 15 13 14 12 12 11 11 11 11 11 11 11 10 9 9 8 8 8 8 7 8 6 6 5 5 4 3 2 2 2 2 1 1 2 2 3 3 4 4 4
11 14 19 20 21 20 17 19 16 12 13 13 12 12 12 12 12 12 13 13 12 11 10 9 9 9 8 9 8 7 7 6 6 5 4 4 2 1 1 2 1 2 2 2 2 3 3 4 4
13 13 18 22 22 19 18 20 16 12 12 13 11 12 12 12 12 12 13 13 12 11 10 10 9 9 9 8 8 7 7 6 6 5 5 4 3 3 1 2 2 2 2 2 2 3 4 4 4
13 16 14 17 21 20 18 16 13 14 13 14 12 12 13 12 12 12 12 13 12 12 10 10 9 10 9 9 9 8 7 7 6 5 5 4 4 3 3 2 1 1 2 2 3 3 4 5 5
14 13 18 19 23 22 19 18 16 15 14 14 14 13 13 12 12 13 13 13 13 12 10 10 9 10 9 9 9 8 8 7 7 6 6 6 5 4 3 2 2 2 2 2 3 3 4 5 5
15 16 16 15 17 20 20 18 15 15 14 14 14 12 12 12 13 13 13 13 13 12 11 10 10 10 10 9 9 9 8 7 7 6 6 6 6 5 5 4 4 4 4 3 3 4 4 5 5
14 15 15 18 19 19 19 19 14 14 15 14 13 11 11 11 12 13 13 14 14 13 12 11 11 10 10 10 9 9 8 7 8 7 7 7 6 6 5 5 4 4 5 5 5 5 4 5 6